Theta_e
308 309 309 311 311 310 309 307 307 306 307 307 305 307 308 311 305 304 316 319 314 313 314 315 318 320 320 316 318 319 325 330 334 337 330 330 336 341 343 355 348 347 354 364 361 362 361 359 358 359 359 361 363 365 362 362 360 360 362 363 363 364 365 364 363 364 366 365 365 365 365 364 363 362 361 360 360 360 363 364 363 362 360 359 364 364 365
306 308 309 310 309 310 309 308 308 308 308 307 307 307 309 309 314 313 314 320 313 315 315 316 317 320 318 320 324 322 324 327 335 331 333 325 331 335 339 347 353 357 355 367 364 364 363 360 360 357 359 362 362 363 362 361 361 361 363 363 362 363 364 365 366 366 366 367 365 365 364 364 364 363 362 361 360 360 360 362 364 366 364 360 360 365 365
303 306 309 309 310 309 307 309 309 308 308 308 308 308 308 310 309 310 310 316 314 317 322 320 321 337 320 322 318 320 328 325 325 327 324 324 326 338 343 352 351 357 360 365 366 365 365 363 362 359 359 362 363 359 359 358 361 362 364 364 362 362 364 367 367 368 367 367 367 365 364 364 365 363 362 362 361 361 361 361 362 366 366 362 357 361 366
300 305 306 307 309 308 308 308 309 309 308 306 307 306 309 308 308 311 310 312 310 317 321 319 321 320 321 321 324 325 327 322 324 323 323 325 332 331 334 341 348 357 358 361 363 364 363 363 365 362 362 362 361 357 358 358 358 360 361 365 362 363 366 369 369 369 368 369 369 367 365 364 365 365 363 362 362 362 361 360 362 365 366 365 362 358 362
299 304 306 305 307 307 303 304 307 308 310 310 310 310 311 310 311 308 306 309 317 321 323 319 317 317 318 320 319 322 324 333 326 324 323 324 330 335 344 348 353 344 342 351 361 358 358 359 359 361 365 362 360 360 360 360 360 358 358 362 364 365 367 369 370 370 370 369 369 369 367 365 365 366 365 362 361 361 361 362 362 363 366 366 365 363 360
298 303 304 306 303 296 298 310 313 312 309 309 308 308 310 311 312 310 313 315 322 321 318 317 319 318 321 325 331 326 333 330 335 323 327 324 327 331 340 347 346 349 354 355 354 354 359 359 354 356 360 360 362 362 361 363 361 361 360 361 367 365 368 370 370 371 371 371 370 369 369 367 365 366 366 364 361 361 361 363 363 363 364 366 366 366 364
297 301 302 298 294 296 309 313 314 314 313 313 311 312 312 312 313 313 313 315 318 321 321 320 323 331 323 323 324 322 323 330 327 329 325 331 333 339 335 341 335 348 360 356 363 366 358 355 359 357 359 361 362 362 361 361 362 363 362 362 369 367 367 370 371 371 372 373 373 372 371 368 366 366 367 367 364 361 360 361 362 363 363 364 366 366 365
300 299 298 291 294 307 310 312 314 315 314 313 312 309 313 314 313 314 313 316 317 321 319 320 323 328 322 323 328 328 325 325 324 322 323 324 324 326 331 367 361 362 354 358 349 358 347 351 356 356 357 356 355 357 359 359 360 362 364 363 368 369 367 370 371 373 373 373 374 373 372 370 367 366 368 369 367 365 362 360 363 366 366 365 364 365 367
294 297 297 297 305 304 306 308 311 312 310 311 309 305 310 314 316 316 316 317 318 318 319 320 321 322 321 322 325 324 324 326 324 323 324 323 325 326 349 359 363 366 364 357 353 364 361 356 351 355 356 356 356 356 356 354 359 359 361 362 364 370 367 368 370 373 374 374 373 373 373 371 368 367 368 370 370 368 365 363 363 364 365 364 365 365 365
299 295 294 296 297 295 302 309 313 315 315 315 315 311 308 315 316 317 316 316 317 318 318 319 320 319 318 315 318 323 323 323 322 323 323 324 326 329 356 362 362 364 360 360 361 351 359 360 358 363 356 357 358 359 357 355 354 355 357 360 364 370 368 367 369 373 375 375 373 372 373 372 370 369 370 371 370 370 366 363 361 364 365 366 367 367 365
296 295 292 293 294 299 308 308 312 315 317 315 317 311 305 315 316 316 316 315 316 316 316 318 319 315 311 312 319 323 322 322 322 323 323 324 330 350 352 352 355 366 368 366 364 365 362 357 361 364 364 360 356 358 359 354 353 354 356 360 363 368 369 368 369 372 375 376 374 373 373 372 371 371 370 370 371 372 368 366 363 365 366 366 367 368 366
293 294 293 292 300 300 307 309 311 314 318 317 314 301 302 321 325 326 322 315 318 333 334 328 319 316 311 314 326 321 322 347 349 351 348 349 350 353 355 358 361 363 365 358 354 350 352 366 368 367 357 358 358 358 357 358 355 355 358 361 366 370 372 370 371 373 374 375 375 372 372 374 373 372 372 370 370 369 369 366 365 364 364 366 367 368 367
293 293 293 297 301 308 310 312 314 315 316 314 303 297 312 321 326 327 328 326 327 330 330 330 321 325 327 333 335 333 338 348 347 348 348 349 353 354 354 354 361 356 361 361 358 362 372 367 366 364 358 360 366 367 362 360 358 358 364 367 369 370 373 371 371 372 373 374 373 372 373 373 372 371 371 369 369 369 367 367 367 365 364 364 364 365 366
291 294 292 294 300 307 311 314 315 315 310 301 302 318 325 322 323 328 329 327 327 327 328 329 328 331 334 336 336 338 345 348 350 352 351 352 353 354 359 354 352 354 355 363 358 353 364 369 366 365 370 369 367 374 365 361 364 368 372 370 370 370 372 371 370 371 371 374 374 373 373 374 373 371 372 372 370 371 369 369 368 367 367 364 362 361 364
294 295 292 291 288 304 312 313 312 314 305 311 318 319 322 321 323 325 327 327 326 327 326 326 329 330 331 333 332 335 342 346 347 349 348 347 345 349 358 357 351 353 359 358 359 361 362 360 364 368 369 368 371 375 368 368 369 373 376 371 371 369 371 371 372 372 372 373 372 371 372 374 373 372 373 372 371 372 371 370 369 367 368 367 365 363 363
290 291 290 291 300 307 310 308 305 310 311 314 318 318 317 321 322 323 325 327 328 326 325 326 328 328 332 334 337 335 338 344 347 348 350 350 350 354 354 353 355 355 357 359 360 362 363 365 364 365 370 369 368 369 370 378 372 374 378 374 373 370 369 370 372 371 372 371 373 372 374 374 373 372 371 371 372 372 371 370 369 368 368 368 366 363 361
295 294 298 305 311 311 310 312 309 312 315 316 318 320 319 320 322 326 326 326 328 327 326 327 329 330 330 332 336 337 334 340 345 347 348 348 349 353 353 351 355 357 356 356 357 359 364 363 363 366 367 367 365 364 369 375 375 374 377 374 372 370 369 370 371 369 370 370 371 372 372 373 371 370 371 370 370 371 371 370 369 367 368 367 366 365 365
304 304 303 307 310 312 311 312 312 312 313 316 315 317 318 321 323 325 324 325 328 328 329 327 329 331 332 332 333 337 338 341 345 349 349 352 352 351 352 353 353 354 356 356 356 356 359 364 367 365 366 368 364 369 372 370 376 375 375 374 372 371 370 370 369 367 367 367 369 369 372 372 373 372 370 368 368 370 371 369 368 367 367 363 363 363 362
297 293 306 306 308 311 311 309 311 313 314 314 314 316 320 322 323 325 325 328 330 330 330 329 328 329 331 328 331 337 342 342 344 345 346 348 351 351 350 351 353 353 354 353 352 353 354 359 362 365 367 370 370 369 371 370 371 375 373 373 371 372 370 367 368 368 366 362 364 369 372 371 372 372 369 369 369 367 367 365 365 364 364 363 361 359 359
297 298 305 308 309 308 309 309 309 310 312 314 316 320 322 322 322 323 325 328 329 329 329 331 331 331 332 332 333 336 338 342 344 346 345 346 348 352 351 350 354 352 352 352 351 351 352 356 359 360 362 363 365 367 365 370 369 371 372 368 366 368 365 366 364 366 366 367 368 365 366 365 365 366 366 366 366 367 365 365 363 362 361 359 358 358 358
300 304 304 306 307 307 308 310 311 311 312 314 315 317 318 319 320 321 322 324 326 328 329 332 332 330 333 335 336 336 337 342 343 343 344 345 347 349 350 351 353 352 351 351 351 351 351 355 357 359 359 360 363 366 367 369 372 368 368 366 367 368 368 366 367 368 367 366 364 362 357 342 336 334 346 361 348 337 332 334 346 359 364 352 348 349 349
295 297 300 305 299 299 305 309 311 312 313 313 312 313 315 317 318 320 319 320 325 327 330 331 332 331 332 335 338 338 340 341 343 343 344 345 346 347 350 351 351 350 350 350 350 350 351 353 355 357 358 361 364 364 367 369 372 369 367 367 367 367 367 367 366 366 366 363 363 361 347 342 337 334 321 313 331 337 328 316 310 311 319 336 340 348 342
295 302 305 309 307 307 307 309 311 312 313 312 311 312 314 316 318 318 318 318 321 326 329 331 332 333 334 334 338 338 340 342 344 345 345 345 345 347 348 348 348 348 348 348 348 348 349 350 350 353 355 358 361 361 363 366 369 370 370 368 364 357 357 361 367 367 369 367 360 352 347 346 344 335 332 325 304 306 315 314 308 302 302 304 309 318 337
303 305 306 308 305 304 307 309 310 311 313 313 312 313 315 315 316 317 319 320 320 322 327 330 332 333 335 336 336 337 340 343 343 343 344 346 346 346 347 348 347 346 346 346 346 345 348 349 350 352 350 352 357 356 359 360 361 360 360 360 355 355 356 356 353 353 357 358 358 355 349 345 343 340 336 334 331 309 301 305 305 302 302 302 301 303 309
301 306 307 307 307 307 308 309 310 311 312 313 311 312 313 314 317 320 319 319 321 322 324 328 330 333 335 337 338 339 340 341 342 342 345 346 346 345 346 346 345 346 346 346 347 349 349 351 351 351 351 352 354 353 357 355 358 357 355 353 353 352 352 353 352 351 351 353 354 354 351 351 344 342 338 337 336 335 327 302 299 300 301 300 300 302 302
306 306 307 307 308 307 308 308 308 310 311 312 311 313 316 320 321 320 318 319 321 323 326 329 330 332 335 335 339 340 340 340 341 343 342 343 343 343 343 343 345 347 346 347 347 347 348 349 350 349 349 350 351 353 354 355 354 354 354 354 354 354 353 353 352 351 352 352 353 353 353 351 347 347 348 345 341 338 336 339 340 320 303 300 304 305 302
306 307 306 304 303 305 306 305 305 310 311 312 312 313 314 315 318 319 320 321 325 328 329 329 331 333 335 336 338 339 339 339 341 342 342 341 341 341 342 342 342 344 344 345 346 347 347 347 346 345 345 346 349 350 351 352 351 350 350 350 350 351 353 352 351 350 350 350 350 352 352 349 347 344 345 345 343 343 342 341 344 344 340 339 317 312 327
305 306 306 301 301 302 305 308 309 310 311 311 311 311 312 317 319 319 318 320 324 329 331 332 333 333 333 336 337 337 338 339 339 340 341 341 340 341 341 342 343 343 343 343 344 346 346 346 343 343 345 348 350 349 347 348 349 348 348 347 346 346 346 346 346 347 347 350 350 347 345 345 345 344 344 343 340 339 336 340 341 340 339 343 340 313 311
305 306 306 306 306 306 308 309 308 308 309 311 314 316 318 317 317 318 321 323 326 329 329 331 334 334 334 335 337 336 337 337 338 339 341 341 340 340 341 342 343 342 342 342 342 345 345 344 344 343 345 348 350 349 348 347 347 346 346 344 343 342 342 343 344 344 344 345 346 345 339 341 343 342 340 340 339 337 337 338 340 338 341 342 342 341 333
304 305 306 306 307 307 306 305 305 306 307 309 312 314 315 315 314 317 322 324 325 327 329 332 332 334 335 335 337 336 336 337 339 340 340 339 340 341 340 341 339 339 340 340 341 341 342 343 342 342 343 345 345 346 347 349 347 348 347 346 344 343 344 345 345 345 345 344 342 338 342 343 345 344 340 340 339 337 336 338 337 337 339 338 333 334 333
304 306 306 307 307 307 306 306 307 307 308 309 310 312 314 315 316 319 322 324 325 326 328 329 332 334 335 336 337 339 339 339 340 341 341 342 342 340 341 340 337 336 337 339 341 342 344 342 341 342 345 342 340 341 343 342 344 344 343 342 342 333 331 333 336 343 341 341 341 340 341 340 339 341 338 336 337 337 337 336 336 336 337 337 335 333 334
304 305 305 305 306 306 306 307 307 307 308 309 310 312 314 315 318 320 323 324 325 326 326 327 327 327 331 336 338 338 338 338 339 340 340 339 340 341 342 342 341 340 340 341 341 341 342 342 342 345 348 346 346 346 345 343 343 339 338 340 339 339 335 332 337 338 338 339 339 339 338 338 337 338 337 337 336 335 335 335 335 336 335 334 334 337 335
302 301 302 304 306 306 306 307 307 308 309 311 312 315 317 320 322 323 324 324 324 324 324 324 324 324 329 333 334 334 334 334 334 335 333 333 335 337 338 338 338 338 338 339 340 342 341 340 340 343 345 346 344 340 338 338 337 337 339 340 339 338 340 332 333 337 339 337 336 337 338 337 337 336 335 336 336 334 334 333 335 334 334 335 337 336 331
304 304 306 307 308 306 306 307 309 309 310 312 316 317 321 323 322 322 321 322 321 321 321 322 323 323 322 328 331 331 331 331 329 329 330 330 330 331 332 333 334 335 335 334 334 334 337 338 341 340 340 338 339 339 339 338 338 339 339 338 337 337 337 336 338 336 335 334 335 338 338 337 338 336 334 336 335 334 333 332 331 332 332 334 336 334 321
310 311 311 311 312 312 313 311 311 312 314 315 316 319 320 321 320 320 321 320 319 320 320 320 320 319 318 318 325 326 326 326 326 327 328 328 327 328 329 329 329 329 329 329 330 331 334 337 339 337 336 336 337 338 339 338 337 339 340 339 339 337 337 337 336 334 333 333 335 334 334 333 334 336 336 335 334 336 333 333 331 331 333 334 334 337 332
314 313 314 315 316 316 315 316 317 318 318 318 319 318 318 318 319 319 318 318 319 317 317 318 318 316 315 314 315 320 322 322 322 325 326 327 326 326 326 325 325 325 325 326 328 330 331 335 340 339 335 335 334 335 339 339 338 338 340 337 336 336 336 334 334 334 335 334 332 333 333 335 334 333 333 333 332 333 332 332 332 332 331 332 332 333 335
310 314 319 316 316 318 317 317 318 317 317 317 317 316 316 317 317 318 318 318 316 315 315 316 315 315 315 314 314 315 318 320 321 321 322 322 322 321 321 321 322 322 322 321 325 327 329 330 334 336 333 333 332 333 339 341 337 338 338 336 335 335 333 333 333 333 332 333 331 331 331 331 330 330 330 330 329 329 330 331 330 331 331 331 331 331 331
308 309 310 311 311 311 312 313 315 315 315 314 315 315 316 314 314 313 313 314 314 314 314 314 314 313 313 313 312 311 312 315 317 319 319 319 319 318 317 317 318 319 318 319 324 327 328 330 333 333 332 332 330 330 333 335 338 334 332 331 331 331 330 329 330 330 329 329 329 328 327 326 326 326 327 327 327 325 325 326 326 328 328 329 329 329 329
305 306 306 307 308 308 309 310 311 311 312 312 312 313 315 315 315 313 312 312 313 313 312 311 312 312 312 310 309 309 310 311 313 313 314 315 316 314 314 314 316 317 318 320 320 322 327 329 329 329 329 328 328 327 331 338 334 332 331 331 330 329 328 328 327 327 328 328 327 325 325 324 323 323 322 322 323 322 322 322 322 322 323 324 324 324 324
304 304 305 305 305 306 306 307 308 309 310 311 311 311 313 313 313 313 312 312 312 312 309 309 308 308 308 309 308 308 308 309 310 311 311 311 312 311 310 311 313 315 317 320 319 319 323 326 325 325 325 325 325 325 328 329 330 327 327 326 325 325 325 326 325 324 325 325 324 324 322 321 320 320 319 319 319 318 318 317 317 317 317 318 318 318 318
305 305 305 305 305 306 306 306 306 307 308 309 310 311 312 312 312 311 311 312 314 315 313 310 307 306 306 307 307 307 307 308 308 308 309 309 308 308 307 306 310 312 313 314 316 318 320 321 321 321 321 322 323 326 324 326 323 322 321 321 320 320 320 321 321 321 321 321 321 320 319 319 318 318 316 316 315 315 315 314 314 314 314 313 313 314 314
306 307 306 306 306 306 306 307 307 307 307 308 310 311 311 312 312 311 312 313 313 313 313 314 315 312 309 308 308 307 306 306 306 307 307 308 307 307 306 307 310 312 315 315 315 315 314 314 317 320 318 319 321 324 324 322 320 320 319 319 318 318 318 317 318 317 318 317 317 317 318 317 317 315 314 313 312 311 311 311 311 311 311 311 311 311 311
307 307 307 307 307 308 308 307 307 306 307 307 308 309 309 310 311 311 311 312 312 311 311 311 312 313 313 312 309 306 306 307 307 306 306 307 309 309 308 308 310 311 315 314 312 311 312 312 312 314 318 317 317 320 320 316 317 317 316 316 317 316 316 315 314 314 314 313 313 313 314 313 312 311 310 309 308 308 308 307 307 306 306 307 307 308 309
308 308 308 308 307 309 309 309 308 307 306 306 307 308 308 309 309 310 310 310 310 311 310 309 309 309 311 311 311 309 308 307 308 308 306 305 306 309 311 310 310 312 314 312 311 311 311 313 311 312 316 316 316 316 313 311 311 312 313 313 313 314 314 314 313 313 312 312 311 310 310 311 310 309 308 307 306 305 305 305 304 304 304 304 304 305 305
309 309 309 309 309 309 308 308 308 307 307 307 307 307 307 307 308 309 308 308 309 309 310 309 310 309 308 309 309 309 310 312 311 312 308 305 304 305 311 313 312 311 311 312 309 310 311 313 313 315 315 313 313 313 309 308 309 309 309 309 310 310 310 310 311 311 311 310 310 309 309 308 308 308 307 307 306 305 304 303 302 302 302 302 302 302 302
309 309 310 310 308 308 308 308 308 308 307 306 305 306 307 307 307 308 308 307 307 307 307 308 309 309 310 309 309 309 309 309 310 311 311 309 307 308 311 311 310 311 312 312 309 308 309 314 312 312 312 312 312 308 306 307 307 306 307 307 307 307 307 307 307 308 308 308 308 307 306 305 305 304 305 305 304 303 303 303 301 300 300 300 301 301 301
308 308 308 308 308 308 308 308 308 307 306 305 304 304 306 307 307 306 306 307 307 307 307 308 308 308 310 310 310 309 307 307 308 309 310 311 312 312 313 312 312 312 311 308 308 309 310 310 313 311 311 312 312 307 306 306 306 306 306 306 306 306 307 306 306 306 306 306 308 308 309 307 305 303 303 302 301 301 301 301 299 299 299 300 299 299 299
306 306 306 307 307 308 309 307 306 304 304 303 303 304 304 306 306 306 305 306 306 306 306 306 307 308 308 308 309 309 309 308 304 305 308 308 309 310 310 310 311 311 311 311 311 313 312 310 310 311 311 310 308 306 306 306 307 306 306 306 305 305 306 306 306 306 306 306 306 306 305 305 305 305 304 303 302 302 302 302 301 301 301 300 299 299 298
306 305 306 306 305 306 306 305 304 304 304 305 306 304 305 304 305 305 305 304 304 303 303 304 305 306 307 309 308 308 310 311 309 306 309 309 308 308 309 310 311 311 310 307 307 308 312 310 310 309 310 310 306 306 305 305 306 306 306 306 306 306 306 306 306 307 306 306 306 306 306 305 305 305 305 305 305 304 304 304 304 303 303 302 302 301 301
306 306 304 304 303 303 303 302 302 303 304 305 305 304 304 302 301 301 303 303 303 303 301 301 302 305 305 305 306 308 309 309 310 311 311 310 309 310 309 309 310 311 310 308 308 307 310 311 311 310 308 306 306 307 307 306 305 305 305 305 305 305 306 306 305 305 307 306 305 306 306 306 306 307 307 307 306 306 306 305 303 303 304 304 303 303 303
306 305 304 306 305 306 305 305 304 305 303 303 304 305 304 302 301 302 301 302 302 302 301 300 301 302 303 304 305 305 306 307 308 309 308 309 310 309 309 309 309 309 309 307 307 306 306 306 306 308 307 306 305 305 305 305 305 306 306 305 305 304 304 304 305 305 305 306 305 305 305 305 306 306 305 305 305 305 305 305 305 304 305 304 305 304 303
305 305 306 305 304 304 304 304 306 305 305 304 303 302 302 302 301 300 300 303 301 300 301 300 299 300 302 302 304 304 305 305 306 306 307 308 307 306 307 308 307 307 307 306 305 306 306 306 308 308 308 305 305 305 307 308 305 304 305 306 306 304 305 304 304 304 305 305 304 304 304 304 304 304 304 304 304 304 304 304 304 304 304 304 304 305 304
Wind_Speed
15 14 17 14 8 11 13 24 22 24 24 26 25 18 15 13 9 7 7 4 4 10 8 8 8 8 8 9 8 12 11 14 10 7 9 13 13 10 11 9 12 11 9 9 12 15 15 17 16 16 15 15 13 12 14 14 17 17 14 15 15 17 16 16 15 16 15 15 14 14 15 15 15 15 14 14 13 13 12 14 14 16 15 15 14 14 14
14 15 16 14 14 12 9 17 23 21 24 25 26 20 17 15 8 8 8 6 9 3 10 9 9 9 10 7 4 8 8 11 7 5 4 13 14 12 11 9 8 8 9 9 11 11 13 15 14 15 13 13 14 14 14 15 15 14 13 15 15 15 17 15 14 14 15 14 14 14 15 15 15 15 13 13 13 14 13 13 13 13 13 13 14 15 14
12 12 12 17 13 3 11 13 15 22 19 22 24 22 20 17 14 15 11 12 10 5 7 8 9 3 10 7 10 12 7 9 7 8 7 8 12 14 11 9 10 7 7 7 9 10 11 12 14 14 12 12 13 18 17 18 15 14 13 14 15 16 15 14 14 15 15 15 14 15 15 14 14 14 14 13 12 13 13 13 13 12 12 13 13 13 15
11 9 10 13 13 11 12 14 14 13 19 22 21 20 19 16 14 13 14 8 10 7 8 12 8 4 1 5 9 10 9 12 12 12 13 8 12 15 13 11 9 8 8 8 8 10 11 11 11 11 11 11 12 16 16 16 17 17 13 14 17 15 14 13 14 14 14 15 15 15 14 14 14 14 14 13 12 12 13 13 12 11 13 14 12 12 12
11 8 7 13 12 6 10 12 13 14 13 13 17 18 19 18 16 14 13 7 6 6 6 8 13 12 8 4 6 3 3 8 3 6 7 11 15 13 12 12 12 12 12 12 10 11 12 12 11 11 10 11 12 11 12 13 12 16 16 14 15 15 15 15 14 14 14 15 15 15 15 15 14 13 14 14 14 13 14 13 12 12 12 13 13 13 12
11 10 8 10 9 10 10 7 14 14 14 13 17 18 20 20 17 11 10 7 11 9 11 11 9 9 7 4 3 1 2 2 3 4 3 6 3 14 16 14 12 10 10 12 12 12 9 11 14 13 12 12 10 11 11 11 13 12 13 12 13 15 15 15 15 14 14 14 15 15 14 14 14 14 14 15 15 14 12 12 13 13 13 13 13 13 13
8 7 8 9 13 11 6 9 10 10 10 9 13 14 22 19 19 16 14 12 10 9 8 10 7 4 7 8 5 6 6 5 2 3 3 4 5 5 3 6 11 10 7 10 7 9 11 12 10 10 10 10 9 10 10 11 11 10 11 12 10 14 15 14 14 14 15 14 14 14 14 14 14 15 15 14 14 13 13 14 14 14 14 14 13 14 15
8 8 7 13 11 6 8 11 7 6 10 12 11 13 10 18 20 17 15 16 11 7 10 12 10 6 3 4 2 2 3 7 6 8 8 9 7 5 5 11 11 8 9 7 8 4 2 3 10 12 11 12 13 13 12 12 11 12 9 11 9 12 14 14 14 14 14 14 13 13 13 14 14 15 14 13 14 13 12 12 12 11 12 13 14 14 14
7 6 7 11 6 10 16 15 13 11 10 10 8 6 6 7 4 10 8 8 7 7 3 4 5 3 2 1 2 3 4 3 4 7 7 8 11 13 8 10 10 7 6 5 5 4 3 3 4 8 11 12 12 12 14 14 11 12 12 12 12 12 14 14 14 14 13 14 14 14 13 14 15 15 14 13 13 11 11 11 11 13 13 14 12 13 14
7 7 8 7 10 13 12 2 7 8 9 11 9 8 7 7 8 4 0 4 5 7 9 10 9 7 4 4 4 6 9 10 12 12 13 10 8 5 11 10 9 7 6 5 5 3 5 4 5 3 7 12 10 10 11 13 14 14 14 13 11 10 13 14 14 14 14 14 14 14 13 15 15 14 13 11 12 11 13 13 13 13 12 11 11 12 14
8 8 8 8 8 9 7 13 10 6 3 2 12 2 8 3 8 10 9 6 6 6 8 7 7 8 7 7 5 5 8 10 10 12 12 13 4 11 11 8 9 9 8 5 3 3 3 6 6 5 5 5 13 10 11 14 14 13 14 12 12 12 13 13 13 13 13 13 13 14 14 13 13 12 12 12 10 9 11 11 12 9 9 10 11 11 14
9 8 8 9 8 3 4 2 10 13 10 2 3 6 6 9 14 19 6 14 4 10 11 4 5 4 4 3 2 1 4 14 17 19 12 12 13 11 11 10 9 7 4 1 2 5 7 7 6 6 8 6 7 11 11 12 12 13 12 11 10 9 10 11 11 12 12 13 13 13 14 13 11 11 10 11 12 12 11 11 11 11 10 10 11 11 12
10 12 9 10 6 3 3 11 9 7 4 9 10 8 5 7 14 13 16 17 12 10 9 10 2 4 7 9 10 11 13 14 14 12 11 11 11 12 10 9 7 4 1 2 2 2 4 2 7 7 7 6 5 7 10 10 11 10 8 8 9 9 10 11 12 12 11 12 13 13 12 12 11 10 10 11 11 11 12 11 10 10 11 10 10 10 10
11 9 9 9 7 3 10 4 7 8 2 9 8 4 9 7 7 11 12 14 12 10 11 9 8 7 10 12 13 11 11 13 14 11 11 9 10 10 8 6 4 1 1 3 3 5 4 1 3 5 4 5 5 5 9 11 10 6 7 9 9 10 10 11 11 12 12 10 11 11 10 10 10 10 9 10 9 10 10 9 10 10 9 9 9 9 9
10 11 10 8 8 5 7 9 4 6 6 2 6 7 4 8 8 9 12 12 13 13 11 12 11 12 12 11 11 10 8 9 10 10 9 10 10 9 6 6 5 1 2 1 4 4 2 4 4 4 4 5 4 4 7 7 7 5 6 9 10 10 10 11 10 10 10 11 11 10 9 10 10 10 9 9 9 9 10 9 9 9 9 8 8 8 7
12 14 13 7 9 6 5 2 4 9 6 5 3 8 3 6 7 11 7 12 11 13 12 12 12 12 12 12 11 8 5 4 6 6 8 6 5 6 9 8 7 6 2 3 3 2 4 3 3 3 4 4 3 3 4 4 6 4 6 8 9 9 9 9 9 9 10 10 11 9 9 9 9 9 9 8 8 8 8 8 7 8 7 7 7 8 8
11 8 10 8 7 8 7 10 15 9 11 10 10 10 6 8 9 10 8 10 11 12 12 11 12 11 13 12 13 12 7 4 6 8 9 8 6 6 7 7 5 5 5 1 1 2 2 1 2 2 3 3 4 3 3 3 4 4 5 7 8 8 9 9 8 9 8 8 9 9 8 9 9 8 9 8 8 7 7 7 6 6 6 6 6 6 6
8 8 8 8 7 4 5 8 10 9 11 8 11 12 10 8 9 7 7 7 8 9 9 10 10 11 12 12 12 13 10 7 5 6 5 5 7 5 4 7 7 4 2 3 3 3 3 5 4 1 2 3 4 5 4 3 3 3 5 6 7 7 7 7 8 9 9 10 9 8 8 7 7 7 8 8 7 6 6 6 6 6 6 6 5 5 5
6 4 8 10 6 4 8 13 10 8 7 9 8 10 9 9 10 11 9 10 9 9 10 10 10 10 11 12 12 11 9 5 7 6 5 6 7 10 7 5 5 3 2 1 3 3 4 5 6 6 5 6 7 5 4 4 3 5 5 6 6 5 6 6 7 7 9 9 8 7 7 6 6 7 7 7 7 6 6 6 7 7 6 5 5 5 5
9 8 4 4 6 13 12 9 10 7 8 10 11 9 10 10 10 11 14 14 11 11 9 9 9 10 9 10 11 10 9 6 2 4 4 6 5 3 5 5 6 2 2 2 3 4 3 3 4 5 5 6 5 4 3 4 3 3 5 5 6 6 7 7 7 7 7 12 10 7 7 7 7 8 7 6 7 6 5 6 7 7 6 7 7 6 5
10 12 14 12 12 13 11 11 10 9 8 12 11 12 12 11 12 12 11 11 12 12 11 9 8 9 10 10 10 11 9 8 4 3 3 4 5 5 5 3 3 3 4 4 4 5 5 5 5 5 5 4 3 3 3 3 4 4 4 5 5 6 6 6 6 5 6 7 9 8 7 9 9 8 3 3 9 8 7 5 4 1 3 5 6 7 7
9 10 9 7 9 8 8 10 8 9 13 12 14 13 12 12 13 12 12 11 10 11 11 12 10 9 9 11 10 9 9 7 7 6 4 4 5 4 2 1 2 2 3 5 6 5 5 4 3 4 5 4 4 6 4 2 5 5 6 6 6 6 6 6 6 6 6 7 8 9 10 8 9 9 15 18 9 9 6 9 16 16 12 6 4 5 8
9 8 10 6 9 9 7 9 12 13 13 15 16 16 14 12 12 14 14 14 11 9 9 9 10 9 8 12 11 8 6 6 4 4 4 4 3 1 0 1 4 4 4 5 5 5 4 5 5 5 5 4 6 6 5 5 4 6 5 5 6 7 7 4 4 4 4 6 8 11 9 9 8 12 9 12 17 15 14 12 15 17 17 17 18 15 10
14 13 12 5 7 9 9 11 12 11 10 11 15 17 17 17 13 13 14 13 14 12 9 8 8 9 9 11 11 8 6 4 3 3 3 3 2 1 1 4 5 6 5 5 5 6 3 3 4 4 6 6 6 6 6 6 6 7 7 6 8 6 6 7 10 9 8 7 8 9 9 8 9 10 10 9 7 10 10 12 15 15 16 15 15 14 14
13 11 12 11 11 11 10 11 12 11 10 11 12 15 17 20 21 17 16 15 15 16 15 13 11 10 8 9 10 6 5 3 3 2 1 1 1 2 4 4 4 4 5 5 5 4 3 3 4 5 7 8 7 8 7 7 6 7 8 8 8 8 7 8 8 8 7 8 7 7 7 8 9 9 10 9 8 6 4 6 7 14 14 13 13 13 13
12 12 13 14 13 12 11 11 13 12 11 10 11 12 13 13 16 19 19 17 15 14 14 13 13 13 11 9 7 3 1 2 2 3 4 4 5 5 5 6 5 4 5 6 6 6 7 8 7 7 8 9 9 9 9 9 10 10 9 8 7 6 7 7 8 8 8 8 7 7 7 8 7 7 6 7 8 9 8 5 5 4 6 11 14 15 13
11 11 12 14 16 16 13 13 11 10 11 12 13 14 14 15 15 15 14 15 15 14 13 12 12 13 9 7 7 5 4 3 3 5 4 6 7 7 7 7 7 6 7 6 6 6 8 7 8 8 9 9 9 8 8 9 9 10 9 8 8 11 13 9 7 7 7 7 7 6 7 7 7 7 7 7 7 6 5 6 6 6 6 6 7 11 9
14 13 13 15 15 14 14 13 13 13 13 13 14 16 15 13 13 14 15 15 14 13 13 12 12 13 10 7 7 7 6 7 9 6 5 5 7 7 6 7 9 9 8 7 7 7 7 7 8 9 10 9 9 8 9 9 8 8 8 8 8 7 8 10 8 8 7 6 6 7 8 8 7 6 5 6 6 7 6 5 5 5 6 5 4 7 13
18 17 16 17 17 16 15 14 13 13 15 14 13 10 10 13 13 14 14 12 12 12 12 12 12 11 10 9 8 9 9 8 8 8 7 6 7 9 10 10 9 10 9 8 8 7 7 7 7 8 7 6 7 9 10 11 9 9 8 8 9 9 9 8 8 8 7 7 7 8 7 7 6 6 6 6 6 7 5 5 5 4 4 4 4 5 6
19 17 17 18 17 17 18 18 17 17 16 15 15 13 12 12 13 13 12 12 9 9 9 9 9 11 10 10 10 10 9 9 8 8 10 10 10 9 10 8 10 10 9 9 8 7 7 7 8 7 6 7 9 9 10 9 10 10 9 8 7 8 8 9 8 7 7 7 7 8 7 7 6 5 5 6 6 6 5 5 4 3 3 4 4 4 5
15 16 18 16 16 17 18 17 16 16 15 16 16 14 13 12 13 13 11 8 6 6 7 7 7 8 10 10 9 7 6 3 4 6 6 8 9 10 10 9 8 7 7 7 7 6 6 8 8 8 9 11 11 10 10 9 8 9 9 8 8 10 11 9 8 7 7 6 6 6 6 6 5 4 5 5 5 5 5 4 4 3 3 4 4 4 4
15 16 16 14 15 16 17 15 15 14 14 14 14 13 12 12 13 12 9 5 4 3 2 6 8 8 8 6 1 6 7 7 6 7 7 10 9 9 8 8 9 10 8 7 6 6 6 6 8 6 6 8 9 9 9 9 9 9 10 9 9 8 9 11 9 8 6 6 6 6 5 6 6 5 5 5 5 5 4 4 3 3 3 3 4 6 5
14 13 13 15 15 16 16 15 15 15 14 14 12 9 10 11 8 3 0 2 5 7 9 9 8 9 8 4 7 8 8 7 8 8 11 11 10 10 10 10 11 11 10 9 9 8 9 9 8 9 9 7 5 10 11 11 9 9 9 8 8 8 7 8 8 7 8 7 6 6 5 5 5 5 5 5 5 6 5 5 4 4 3 4 5 6 4
15 13 12 13 13 13 15 15 14 13 12 11 8 7 6 5 8 9 9 7 10 13 12 9 10 12 14 8 6 7 9 8 8 7 9 10 12 11 11 10 10 11 10 12 12 10 8 8 8 9 11 12 13 9 8 10 9 9 8 7 8 7 7 6 7 7 7 7 7 6 5 4 3 3 3 5 5 5 5 4 4 4 4 4 5 6 3
10 10 10 9 9 12 12 12 12 10 7 6 6 7 6 6 12 11 8 10 14 11 11 14 13 14 18 17 9 9 10 8 8 8 7 9 12 12 12 13 14 13 13 12 11 10 11 10 9 11 12 13 13 13 9 11 10 9 9 9 9 8 7 7 6 5 6 7 6 6 5 6 7 6 4 4 5 4 5 3 5 5 5 4 4 5 4
5 8 7 6 7 8 7 5 4 4 4 5 6 9 10 11 14 13 14 13 10 12 14 14 15 18 19 19 16 12 11 10 9 9 10 8 9 11 14 16 16 15 13 13 13 11 11 9 11 14 11 11 13 14 11 9 11 10 8 8 8 9 8 8 9 9 9 7 8 7 7 9 8 8 9 9 10 9 9 9 8 6 5 5 5 5 4
21 13 9 9 9 7 8 7 9 12 12 11 10 12 17 16 16 14 14 13 14 14 16 15 17 18 15 17 17 16 13 11 10 10 10 11 12 15 16 17 17 15 13 13 12 12 12 12 15 16 12 11 13 13 13 12 9 8 7 8 8 7 8 8 8 8 8 8 8 8 8 8 9 9 9 10 10 10 9 8 8 8 7 6 6 6 6
21 20 22 18 15 16 18 15 15 15 16 18 16 16 17 16 16 17 16 15 15 15 16 17 14 15 17 18 19 20 18 15 13 13 14 14 14 17 19 17 14 13 13 10 9 9 9 10 13 11 10 10 11 13 14 16 13 9 8 8 7 7 8 9 8 8 8 9 8 9 9 9 9 10 10 10 10 10 10 9 8 8 8 9 9 10 10
26 26 25 22 20 23 22 18 19 20 19 18 17 17 17 18 18 19 18 16 14 15 16 16 16 18 20 19 17 18 18 17 17 17 15 15 15 18 17 15 13 12 10 10 12 11 9 9 10 10 9 10 12 14 15 15 14 9 7 7 10 10 10 10 10 9 9 8 9 9 9 10 10 10 9 9 9 9 10 11 10 10 10 10 9 9 9
24 27 25 22 21 20 20 21 21 19 18 18 17 15 13 16 16 17 17 17 15 16 17 17 18 18 19 18 17 16 15 16 16 18 16 13 14 15 15 16 15 14 14 15 13 13 17 20 14 12 11 12 12 12 12 16 14 10 10 10 11 11 10 10 10 10 9 8 9 9 10 10 9 9 9 9 9 9 9 9 10 10 10 10 10 9 9
20 19 19 20 20 20 20 19 18 17 18 18 17 17 15 13 14 16 16 14 14 15 16 17 18 19 17 16 16 15 15 15 16 16 14 15 15 14 15 15 12 13 14 13 12 13 16 16 14 13 13 14 13 13 11 16 13 12 12 12 12 12 12 11 10 10 9 9 9 9 9 9 9 9 9 9 9 9 9 9 9 10 10 10 10 10 10
18 17 18 18 18 17 17 16 15 17 16 16 15 16 16 16 15 14 12 12 14 15 16 17 19 16 14 15 15 15 16 16 15 15 16 16 14 12 13 12 11 12 18 17 16 15 14 15 15 15 13 13 13 19 18 14 13 13 13 13 13 13 12 12 11 11 11 11 10 10 10 10 9 10 10 9 9 9 9 9 9 9 9 9 10 10 10
16 16 16 16 15 15 15 15 15 15 15 15 14 15 15 16 16 15 16 15 14 14 16 14 15 16 13 12 14 16 14 13 13 13 13 13 13 13 11 9 10 13 21 14 14 13 14 13 14 15 20 17 15 18 19 14 13 13 13 13 13 13 13 12 12 12 11 10 10 10 9 10 10 10 9 9 8 9 9 10 10 9 9 9 9 9 9
14 13 13 13 14 13 12 12 12 13 13 13 13 13 14 14 14 15 15 15 15 14 13 12 13 13 12 11 11 11 10 10 9 8 10 10 13 13 12 10 9 15 22 12 11 11 12 12 14 20 24 23 23 21 14 12 13 13 13 12 12 10 10 10 10 9 9 10 10 10 10 10 10 10 9 9 9 9 10 9 9 9 9 9 9 9 10
12 12 12 12 12 11 11 11 12 11 10 11 12 13 13 13 13 14 13 13 14 14 13 13 12 10 10 11 10 10 9 7 7 6 8 10 11 10 9 9 11 10 14 16 11 11 10 10 14 20 18 20 21 20 13 12 12 11 10 10 10 10 10 10 10 10 10 10 10 10 11 10 10 9 9 10 10 10 10 10 10 10 9 10 10 10 10
11 11 11 11 12 12 11 11 10 10 10 11 12 13 12 11 12 11 11 12 12 13 13 12 12 12 11 9 9 9 10 10 12 11 10 10 9 6 5 10 9 11 18 18 11 11 12 19 20 19 19 18 18 14 12 12 11 11 11 11 11 11 11 10 10 10 9 10 9 9 10 10 10 10 10 10 10 10 11 11 10 10 10 10 9 10 10
10 9 10 10 10 10 10 10 10 11 11 10 10 10 10 11 11 10 11 11 11 12 12 12 13 12 11 11 10 7 7 8 8 8 8 8 8 8 8 13 14 17 14 12 11 11 12 14 16 18 19 19 18 11 11 11 11 11 11 11 10 9 9 9 9 9 10 9 8 8 9 8 8 8 9 9 10 10 9 10 10 10 10 10 10 11 11
10 10 10 10 10 10 8 8 9 10 10 10 9 8 9 8 9 9 10 10 11 11 12 11 11 12 12 12 11 10 9 7 9 8 6 7 6 6 7 6 8 14 15 14 16 14 18 18 18 18 17 17 12 11 11 11 10 10 11 10 10 10 9 8 8 9 9 8 8 7 7 7 6 7 7 8 7 7 7 7 8 8 8 9 9 9 10
10 10 10 10 11 11 10 10 10 10 8 7 8 8 9 10 10 9 8 9 10 10 11 11 11 10 10 10 10 9 8 7 6 6 5 5 6 7 7 9 12 12 10 9 10 9 14 14 15 16 16 15 10 10 11 11 11 10 10 10 9 9 9 8 8 7 7 7 7 7 7 7 7 6 6 6 6 5 5 5 5 6 7 7 7 7 8
9 8 9 8 9 9 9 9 10 9 9 9 8 7 8 9 9 9 8 7 8 9 8 9 8 7 7 7 7 7 6 8 8 6 6 7 8 7 8 8 8 12 12 9 10 9 13 15 12 13 12 9 10 9 8 8 8 8 8 10 9 8 8 7 7 8 6 6 7 6 6 5 4 4 4 5 6 6 5 6 7 6 10 9 6 6 7
7 8 7 7 7 7 8 8 8 7 7 9 9 8 8 8 8 9 9 10 7 7 8 8 8 8 7 7 6 6 6 6 7 8 6 5 6 8 9 7 8 7 8 9 9 9 8 9 9 9 8 7 8 9 9 8 7 7 7 8 10 9 10 10 7 7 8 7 6 7 7 6 6 7 7 8 7 6 7 8 7 6 8 8 6 6 6
8 7 7 7 8 7 8 8 7 7 7 8 8 8 8 7 7 8 9 12 9 7 7 8 8 7 7 7 7 7 7 7 6 6 6 7 7 7 8 10 7 9 9 10 10 10 9 9 10 12 13 10 10 9 10 11 9 10 10 9 9 10 9 9 9 8 8 7 6 6 7 8 8 8 8 8 8 8 7 8 8 8 8 8 8 9 9
Wind_Direction
266 264 277 273 315 311 220 209 213 202 197 203 217 206 206 181 202 195 178 182 175 145 162 151 190 171 184 211 174 154 140 108 129 139 117 120 120 115 129 129 153 164 154 168 175 173 177 181 186 191 192 194 195 192 194 194 200 199 189 186 187 185 185 190 189 187 188 191 194 193 193 191 195 197 199 199 198 197 194 195 202 207 208 204 194 197 200
283 278 272 262 265 233 259 213 213 210 197 201 210 215 211 200 189 224 175 182 227 165 132 192 165 179 175 169 118 136 179 108 95 122 152 152 132 132 137 139 140 145 160 158 166 167 173 180 184 190 192 189 190 192 193 193 199 200 186 184 186 186 187 189 185 183 185 188 191 193 195 194 195 197 198 198 198 198 200 198 196 201 207 210 201 193 195
287 275 272 289 264 335 285 290 222 211 205 200 200 212 216 207 203 200 218 168 203 153 150 159 143 127 134 166 147 133 103 103 138 143 175 175 147 130 145 143 151 149 149 154 162 173 181 184 185 190 193 190 186 196 197 199 194 199 189 179 185 188 188 185 183 182 184 188 188 193 196 195 193 196 199 199 200 200 201 202 201 195 200 206 212 199 194
270 244 266 270 245 231 253 269 275 220 211 199 195 204 209 207 199 187 214 176 195 171 147 126 124 120 337 79 74 132 159 162 174 172 185 190 139 141 145 149 147 154 159 169 173 182 189 193 192 192 191 189 189 198 195 199 196 198 200 182 185 186 181 180 183 184 186 185 188 193 193 196 194 195 197 200 202 201 201 202 202 198 197 204 209 212 199
262 251 268 297 272 226 261 257 263 256 241 223 193 201 204 209 204 198 200 187 162 213 214 162 154 182 168 146 121 106 49 360 47 168 164 157 150 142 148 146 143 165 176 178 182 190 194 198 201 200 190 189 194 197 196 194 196 198 204 190 180 181 180 179 183 185 185 186 189 189 192 194 195 192 195 201 204 203 204 202 199 203 202 199 205 211 214
296 276 263 279 238 222 240 249 250 222 209 218 212 198 202 199 205 206 193 193 152 179 183 219 180 170 125 150 134 14 348 120 279 280 351 341 74 140 155 146 156 169 186 174 180 184 189 193 201 204 200 198 195 193 198 190 195 200 198 201 179 182 180 180 181 181 184 188 190 192 190 191 192 194 196 200 202 203 204 199 202 204 205 204 203 207 213
294 280 235 242 226 233 243 232 241 265 275 287 276 216 192 197 196 207 187 198 166 151 160 193 222 198 188 200 189 199 221 291 321 332 327 314 293 325 323 157 183 163 123 100 138 166 190 191 189 194 194 197 189 191 200 198 194 197 197 205 180 180 182 180 179 180 183 186 189 190 189 189 191 195 198 199 200 202 203 203 202 203 205 206 206 206 210
289 293 241 230 226 215 244 231 229 252 256 255 266 280 231 189 188 193 201 189 177 160 180 183 182 187 178 142 161 300 244 170 207 207 208 216 246 282 279 81 92 105 117 128 128 133 116 205 184 189 190 195 199 199 198 203 195 195 196 201 191 178 181 180 180 180 181 185 187 189 189 190 194 198 197 196 198 200 205 206 206 204 207 210 210 210 211
269 264 279 259 245 218 221 229 205 199 225 232 250 267 260 300 266 188 178 149 156 139 101 50 78 79 118 160 103 180 272 297 269 259 248 230 206 208 153 129 107 92 103 106 118 139 155 236 249 190 184 190 197 197 197 204 198 194 196 200 199 182 183 180 179 178 180 184 185 187 188 190 194 197 196 196 198 197 206 209 206 205 207 209 211 212 214
267 265 270 275 235 216 193 297 226 194 228 234 231 234 268 284 293 319 178 166 177 189 184 179 170 162 213 218 206 193 221 229 238 234 239 238 245 216 124 111 114 116 121 128 129 161 171 212 244 269 190 177 188 191 195 199 202 199 200 202 198 182 184 181 178 176 179 182 186 188 190 194 195 196 195 197 199 195 204 208 212 211 210 212 213 215 217
266 247 263 262 244 210 169 195 234 182 251 122 39 304 217 178 259 242 240 232 200 232 237 227 188 193 199 203 219 191 217 239 241 232 209 224 163 77 82 89 91 82 74 61 60 142 191 210 216 248 272 202 181 191 190 200 203 203 202 198 194 189 184 182 181 179 179 182 185 187 191 195 189 188 193 195 196 195 205 209 216 215 208 209 212 215 220
259 265 249 250 224 128 351 189 193 197 171 21 196 196 174 32 32 15 287 220 28 34 19 314 212 213 209 166 190 195 230 75 52 39 29 81 93 95 89 80 75 73 53 71 232 242 221 219 217 215 229 243 207 185 193 197 203 204 201 193 188 180 175 177 180 181 182 182 185 190 191 190 189 190 187 191 195 197 202 207 211 216 216 212 211 214 217
254 263 269 266 256 106 57 42 25 21 189 167 197 199 64 357 39 33 35 48 39 35 32 22 8 48 4 5 348 352 20 42 54 53 55 49 60 65 64 53 38 47 125 220 263 303 25 192 201 220 218 224 230 180 182 193 209 205 187 174 174 176 170 176 181 184 184 186 187 191 192 190 189 189 190 195 195 197 200 203 207 209 217 220 219 219 216
230 233 245 250 263 221 89 57 342 19 250 188 172 26 288 346 50 47 39 45 34 23 32 21 27 349 358 358 2 4 28 35 42 42 41 38 50 58 62 62 65 25 3 78 264 246 201 292 237 223 229 225 229 184 181 194 200 185 165 169 167 172 173 177 182 186 189 187 187 191 189 184 188 190 190 193 195 193 196 201 205 205 208 219 224 225 223
227 225 229 229 237 192 98 81 52 331 325 349 337 324 13 17 34 45 44 32 27 20 16 14 6 3 357 357 349 351 355 3 25 37 22 24 22 23 65 77 65 68 81 32 21 21 321 248 234 267 251 236 224 186 191 188 173 175 159 164 165 169 172 176 179 186 189 184 183 191 189 185 185 187 185 189 192 191 192 198 201 203 206 208 217 229 234
212 210 219 221 235 298 122 92 84 45 84 213 287 262 350 356 43 27 20 32 16 16 14 2 2 357 358 355 351 330 324 322 327 4 28 18 10 34 48 50 38 40 62 28 18 339 339 316 263 251 263 237 206 176 159 138 155 159 151 152 157 163 169 176 177 183 185 183 183 188 186 180 181 182 186 187 189 190 189 194 194 200 204 202 212 220 228
212 222 224 214 325 298 328 34 38 19 7 8 5 34 20 5 16 22 12 12 7 3 0 358 0 355 0 351 340 325 313 354 23 24 13 8 11 41 35 29 11 13 41 44 21 355 354 336 207 244 245 219 159 164 126 116 137 150 143 149 152 161 167 176 179 185 183 186 182 186 183 177 174 178 184 182 187 187 186 189 192 203 199 201 210 220 229
310 293 286 314 263 299 273 33 17 350 349 6 16 22 12 13 350 3 358 352 6 357 358 356 1 2 348 342 335 333 329 350 22 50 4 5 30 24 37 39 14 358 16 69 76 54 35 18 8 152 146 117 121 87 63 105 143 131 124 128 140 149 156 170 181 190 189 188 180 182 175 171 169 169 178 178 186 178 181 182 195 200 205 209 212 216 216
324 253 199 230 256 277 328 356 346 347 310 345 3 14 10 356 345 339 347 0 3 15 8 3 355 341 347 336 329 324 319 342 355 359 6 354 20 19 33 12 323 343 295 94 89 83 53 25 25 33 62 73 80 96 97 66 86 98 116 120 129 143 162 175 182 190 182 185 176 169 163 160 165 171 174 180 182 180 177 196 197 198 202 203 214 221 227
240 255 235 246 321 332 327 322 317 315 328 326 353 10 360 346 340 347 355 351 0 3 353 13 345 339 332 330 326 318 320 315 298 351 14 340 328 23 20 353 322 347 1 43 64 66 53 30 43 55 58 79 88 93 113 149 118 117 120 134 150 163 173 181 187 185 172 176 163 157 162 173 172 177 182 182 180 174 191 203 197 191 202 199 204 220 226
247 246 265 283 303 296 290 287 305 304 357 8 352 351 344 340 342 349 346 352 344 348 352 343 352 334 327 323 323 320 321 323 352 13 325 326 318 318 315 320 322 49 52 67 74 74 65 29 38 54 55 70 91 126 165 172 129 150 128 142 152 165 172 166 177 164 160 161 153 159 104 65 50 32 322 150 87 71 42 4 22 37 136 73 63 67 71
252 239 233 231 250 252 251 242 256 331 1 349 338 332 333 334 337 338 338 341 347 343 348 346 345 349 325 310 305 309 316 323 336 327 325 312 299 298 333 291 60 82 76 88 81 73 49 42 57 68 71 75 67 64 40 137 160 147 151 162 165 164 165 152 153 158 163 155 170 137 115 106 87 62 38 43 60 102 75 60 66 65 75 81 47 56 83
249 246 261 297 312 281 279 323 346 342 345 341 330 324 322 327 328 331 331 334 342 350 343 342 327 329 326 309 301 289 285 296 329 340 314 291 269 263 225 163 103 93 85 83 87 79 69 54 53 41 39 94 83 68 60 67 103 133 147 122 89 62 52 46 75 129 96 79 72 92 105 106 102 98 90 53 39 58 92 96 93 90 89 86 71 60 69
262 270 261 285 326 304 324 323 324 324 338 339 325 317 318 318 321 322 327 332 335 333 334 332 337 321 319 312 301 286 276 277 257 250 272 276 282 224 181 98 109 116 119 117 107 95 87 57 55 80 84 79 71 75 53 42 47 58 58 77 95 90 76 78 64 63 70 77 82 98 106 111 114 111 104 101 74 27 28 89 97 97 98 94 92 88 79
257 267 280 299 313 307 308 309 306 315 322 314 312 312 315 319 320 330 330 330 330 329 326 325 325 319 305 306 306 302 294 276 260 260 271 19 39 130 124 122 130 116 118 125 125 136 134 131 104 73 60 48 54 61 50 46 51 68 74 75 82 87 92 79 74 75 78 86 93 94 111 121 125 124 117 114 111 115 58 14 78 106 105 105 102 97 93
265 257 269 285 285 281 286 292 288 293 303 303 296 295 304 312 320 320 320 321 317 317 317 315 312 307 314 302 313 314 350 285 259 208 202 175 143 141 141 119 108 118 125 127 128 123 113 102 96 93 85 80 70 57 48 48 46 54 58 58 61 73 77 79 76 74 69 66 68 69 67 68 64 67 87 111 130 132 135 135 110 87 90 89 100 92 78
273 282 281 268 268 271 269 268 278 295 304 308 303 301 304 305 309 306 304 304 303 303 300 300 298 299 291 290 282 268 248 195 205 221 191 171 160 147 137 139 139 126 124 115 104 102 107 107 102 97 93 88 80 74 77 77 82 79 78 77 83 79 77 76 86 85 80 71 63 61 74 83 84 87 81 67 62 68 80 90 88 90 92 68 53 74 77
268 267 261 255 253 255 260 262 268 280 286 287 286 283 285 299 299 296 294 293 293 297 299 296 291 280 276 276 269 243 219 205 218 195 188 187 160 152 145 127 122 125 124 116 115 121 126 120 116 118 120 121 119 115 108 109 107 111 107 107 100 93 83 77 71 73 72 71 79 77 70 58 57 62 75 92 88 83 77 69 79 92 85 66 103 120 95
254 254 249 252 255 258 265 270 274 279 281 280 273 271 283 289 290 290 288 287 296 301 298 296 280 272 273 273 256 243 232 224 219 199 176 165 154 142 134 134 131 121 116 121 122 117 105 94 92 85 80 98 117 125 132 130 130 125 128 118 112 108 106 101 98 98 89 76 66 62 70 85 87 77 75 78 90 89 77 73 80 77 71 75 73 89 84
249 250 251 245 244 250 251 251 254 258 261 265 268 268 271 277 281 283 287 287 284 282 290 293 291 282 271 261 253 243 238 233 211 182 161 151 144 147 140 137 136 135 134 128 121 117 111 113 110 100 86 82 81 72 65 62 67 68 72 73 81 91 99 98 100 94 92 89 87 81 78 92 101 106 97 91 91 91 93 89 85 78 81 82 65 55 44
238 241 241 241 241 237 237 243 244 244 246 250 258 264 267 271 274 275 275 269 258 267 276 277 283 283 271 266 263 263 244 194 174 181 168 152 151 143 135 134 124 112 108 106 115 118 133 140 140 137 144 127 110 101 98 94 92 93 92 87 79 72 80 91 87 93 94 91 92 96 93 86 78 79 99 108 107 99 93 86 69 70 83 89 72 60 53
229 225 226 234 234 236 237 236 240 238 238 245 249 253 261 265 262 255 251 242 242 233 54 41 16 352 324 277 188 76 69 71 79 93 92 83 79 60 69 83 95 98 95 88 79 71 73 76 77 85 101 114 124 124 116 111 109 103 101 99 95 93 86 91 90 81 80 76 77 78 78 80 82 82 82 74 74 83 91 89 81 77 59 61 68 76 61
214 218 225 222 222 223 227 228 228 230 235 240 242 252 262 255 241 228 266 146 109 90 67 51 35 21 348 186 102 87 83 80 85 93 94 92 87 87 87 86 80 71 59 46 42 47 47 39 32 30 32 32 93 117 117 109 98 92 91 90 92 94 93 86 91 88 87 90 85 74 66 80 98 99 92 91 87 78 62 66 61 47 38 51 85 94 82
200 210 212 213 215 215 215 218 219 225 224 227 235 248 230 174 131 105 82 67 70 67 61 56 50 48 23 356 94 94 98 104 99 97 100 101 95 88 83 78 75 74 67 59 50 37 31 44 47 44 42 43 30 37 85 99 108 116 120 117 111 109 102 100 101 99 107 102 106 106 112 112 105 108 116 106 102 102 93 85 80 65 46 43 86 110 130
206 212 218 221 217 226 221 216 213 210 208 207 218 196 189 152 107 91 85 67 65 60 64 61 55 51 50 21 23 63 61 61 75 83 78 88 93 89 85 81 77 70 62 55 46 37 23 17 31 48 47 45 41 34 41 81 67 63 61 65 62 60 56 58 60 70 77 67 61 73 66 55 41 19 34 76 89 102 99 75 58 53 44 22 69 123 141
182 193 189 214 199 195 199 212 198 176 177 191 159 134 109 90 85 86 77 69 62 60 61 65 62 54 54 40 18 29 53 53 53 53 61 47 67 79 76 71 65 60 56 53 40 31 23 21 43 57 53 47 44 37 24 57 73 61 66 80 81 75 69 71 66 54 50 63 63 54 53 49 50 43 39 40 39 34 40 38 32 36 41 40 41 39 49
23 39 86 74 56 71 90 82 98 98 90 92 98 93 83 78 74 71 71 73 65 57 55 52 57 60 55 53 40 20 27 38 49 51 55 54 57 62 64 64 58 53 45 42 28 28 29 26 36 51 54 52 47 37 22 36 81 78 85 80 88 90 92 81 69 71 69 57 53 50 44 47 46 43 39 40 41 38 37 43 38 31 29 28 27 32 31
34 48 62 63 60 66 65 51 56 71 75 70 64 64 71 70 70 67 62 60 64 65 61 58 56 63 63 58 49 36 21 19 29 40 43 45 45 55 56 55 54 53 48 37 18 31 39 32 40 55 57 51 46 42 34 39 65 63 64 66 74 76 78 77 73 74 76 73 61 54 50 48 45 44 41 40 42 41 36 33 32 28 29 32 30 25 20
35 43 45 42 43 48 52 48 50 48 49 56 58 57 60 64 64 65 63 58 57 62 66 63 58 56 54 52 51 46 29 20 28 33 36 41 45 52 54 53 50 46 46 42 35 26 23 47 60 54 55 58 55 50 42 42 60 67 61 66 68 67 66 71 69 65 62 63 63 62 58 54 49 46 46 44 43 40 39 33 31 27 28 28 26 23 15
35 38 38 40 42 43 47 48 49 50 50 48 50 49 50 59 61 64 65 65 59 61 62 61 59 58 55 53 50 46 40 31 29 36 30 35 44 50 53 46 39 40 40 39 40 37 33 36 46 49 43 49 56 55 49 48 48 51 55 61 63 64 66 67 65 62 56 56 70 73 68 61 56 54 52 50 49 46 40 39 37 34 32 28 26 19 13
43 45 41 41 41 42 41 44 45 45 48 48 44 43 38 43 52 58 58 58 58 61 65 67 67 62 59 57 54 51 45 40 35 34 32 36 39 41 48 48 29 29 34 40 43 43 41 44 46 55 54 51 48 53 57 54 55 56 55 55 54 54 54 55 59 57 51 50 53 59 61 63 60 57 54 51 50 47 45 42 42 41 39 35 30 25 23
40 40 44 42 43 43 43 42 42 45 44 43 38 36 36 38 44 52 50 54 58 58 61 65 72 80 81 72 66 57 51 45 42 35 32 36 34 34 42 40 24 29 34 36 37 39 42 45 44 46 49 50 50 49 53 58 57 58 58 54 52 52 54 55 57 58 52 44 43 51 58 58 56 56 54 51 47 43 38 39 38 37 37 36 34 32 28
40 39 41 42 40 39 41 43 44 45 45 41 38 38 36 36 38 40 44 46 52 58 61 61 62 64 67 74 79 72 60 54 51 46 43 38 38 39 42 33 27 29 35 36 36 39 41 46 48 48 48 50 47 47 55 56 57 58 57 56 56 56 55 55 57 56 53 52 48 45 48 57 55 53 50 46 43 39 39 39 39 36 32 30 30 32 30
42 41 41 42 42 38 35 36 41 42 45 48 47 44 40 40 38 40 40 43 44 44 47 55 60 58 55 60 69 76 76 69 64 58 59 47 40 33 28 36 27 35 38 37 33 36 37 41 51 53 50 47 48 49 50 53 56 58 58 57 54 53 56 57 56 59 63 61 55 51 51 52 58 58 54 49 47 46 45 41 40 38 36 34 33 30 29
41 40 39 40 42 39 34 31 34 39 46 50 50 48 47 46 44 43 44 41 44 45 44 43 41 49 59 55 59 76 89 90 78 69 72 66 55 39 18 35 39 37 38 40 41 40 38 37 45 53 57 55 54 53 51 49 49 50 55 58 59 57 53 52 53 54 53 58 63 62 56 54 54 56 59 57 54 51 47 46 45 40 39 37 32 33 29
47 43 40 40 40 39 36 34 33 37 43 50 55 55 52 54 55 53 49 48 46 46 46 45 44 40 35 49 64 60 59 64 71 67 62 69 86 104 64 56 49 50 44 43 38 39 40 41 45 49 53 57 60 59 57 52 49 47 47 51 54 55 55 53 51 52 56 57 58 62 65 65 60 56 55 56 58 58 55 54 52 46 42 39 37 35 33
56 52 47 45 45 43 40 39 38 38 37 40 44 49 48 52 56 59 59 57 56 53 48 47 45 40 39 37 33 38 57 60 54 50 62 56 55 62 65 72 66 56 52 47 42 40 39 40 42 46 48 50 53 56 56 56 54 51 49 45 43 46 55 58 58 55 52 54 56 65 71 73 77 75 71 66 64 63 64 59 57 53 50 46 42 39 37
57 56 51 48 49 45 41 43 45 46 42 42 42 42 41 43 49 54 54 54 56 55 55 52 48 45 41 40 39 37 35 43 61 51 39 54 48 49 44 42 61 70 61 52 48 39 40 44 43 45 52 55 52 49 49 51 55 57 56 53 49 46 42 46 53 57 61 58 54 54 53 59 65 72 77 79 80 78 73 75 76 73 68 60 57 53 46
57 55 52 49 45 40 39 37 41 45 50 51 49 43 37 33 33 36 47 52 49 46 46 45 49 52 49 43 41 37 30 27 45 66 45 51 60 55 47 47 46 55 62 60 51 41 33 44 58 51 49 55 57 57 55 53 50 49 51 54 57 54 51 47 41 45 48 55 61 59 55 56 56 57 62 71 81 87 90 93 99 101 94 85 76 69 63
40 51 61 58 56 50 42 39 36 28 27 31 42 50 50 42 39 28 23 36 52 58 48 37 33 38 48 53 43 36 31 32 26 33 48 49 52 57 55 51 49 54 56 62 58 50 38 33 45 64 64 55 53 54 59 63 66 63 58 48 42 42 32 36 57 48 54 56 48 48 55 54 54 66 67 48 43 50 63 88 102 120 114 101 91 80 81
50 49 46 48 53 55 62 56 46 38 34 31 25 31 44 52 48 39 28 25 30 46 56 52 38 29 29 40 53 47 33 33 42 36 30 53 59 53 52 57 54 51 62 60 59 56 50 41 31 28 43 58 74 74 62 50 44 53 64 73 62 45 36 20 22 47 42 33 49 43 29 26 27 28 44 49 45 45 44 38 45 42 33 35 61 96 107
43 51 53 52 52 47 42 44 49 42 32 35 36 30 27 38 53 45 35 23 18 27 50 56 50 40 29 31 38 45 46 40 32 40 42 30 37 54 43 36 39 41 40 47 46 42 44 40 38 36 36 31 28 38 51 55 51 45 36 36 49 54 41 30 23 23 35 31 30 47 50 35 30 40 41 34 30 27 29 38 39 36 35 35 31 36 47